Woolwich, ME

9:44 AM EST on January 21, 2017 (GMT -0500)
Wiscasset

Weather History for KIWI - October, 2011

Change the Weather History Date:

Wednesday, October 26, 2011

  Actual Average Record
Temperature  
Mean Temperature 44 °F -  
Max Temperature 54 °F 51 °F 64 °F (2000)
Min Temperature 35 °F 32 °F 24 °F (1997)
Degree Days  
Heating Degree Days 21    
Moisture  
Dew Point 33 °F    
Average Humidity 68    
Maximum Humidity 89    
Minimum Humidity 34    
Precipitation  
Precipitation 0.00 in - - ()
Sea Level Pressure  
Sea Level Pressure 29.84 in    
Wind  
Wind Speed 1 mph (West)    
Max Wind Speed 5 mph    
Max Gust Speed -    
Visibility 10 miles    
Events      
Averages and records for this station are not official NWS values.
T = Trace of Precipitation, MM = Missing Value Source: NWS Daily Summary

Daily Weather History Graph

Daily Weather History Graph

Search for Another Location

Airport or City:

Trip Planner

Search our weather history database for the weather conditions in past years. The results will help you decide how hot, cold, wet, or windy it might be!

Date:

Astronomy

Oct. 26, 2011 Rise Set
Actual Time 7:06 AM EDT 5:38 PM EDT
Civil Twilight 6:37 AM EDT 6:07 PM EDT
Nautical Twilight 6:03 AM EDT 6:41 PM EDT
Astronomical Twilight 5:30 AM EDT 7:14 PM EDT
Moon 6:52 AM EDT (10/26) 5:15 PM EDT (10/26)
Length of Visible Light 11h 30m
Length of Day
10h 31m
Waning Crescent, 0% of the Moon is Illuminated
Oct 26
Waning Crescent
Oct 26
New
Nov 2
First Quarter
Nov 10
Full
Nov 18
Last Quarter

Hourly Weather History & Observations

Time (EDT) Temp. Windchill Dew Point Humidity Pressure Visibility Wind Dir Wind Speed Gust Speed Precip Events Conditions
12:53 AM 39.0 °F - 33.1 °F 79% 29.90 in 10.0 mi Calm Calm - N/A   Clear
1:53 AM 41.0 °F 39.0 °F 32.0 °F 70% 29.90 in 10.0 mi WNW 3.5 mph - N/A   Clear
2:53 AM 37.0 °F - 32.0 °F 82% 29.91 in 10.0 mi Calm Calm - N/A   Clear
4:53 AM 35.1 °F - 32.0 °F 89% 29.91 in - Calm Calm - N/A   Clear
5:53 AM 37.9 °F - 34.0 °F 86% 29.90 in 10.0 mi Calm Calm - N/A   Clear
9:53 AM 44.1 °F 42.5 °F 32.0 °F 63% 29.91 in - Variable 3.5 mph - N/A   Overcast
11:53 AM 46.9 °F - 28.9 °F 50% 29.88 in 10.0 mi Calm Calm - N/A   Overcast
12:53 PM 50.0 °F - 27.0 °F 41% 29.84 in 10.0 mi Variable 4.6 mph - N/A   Partly Cloudy
1:53 PM 51.1 °F - 28.9 °F 43% 29.82 in 10.0 mi West 3.5 mph - N/A   Partly Cloudy
2:53 PM 52.0 °F - 28.9 °F 41% 29.81 in 10.0 mi WSW 4.6 mph - N/A   Mostly Cloudy
3:53 PM 53.1 °F - 25.0 °F 34% 29.79 in 10.0 mi Calm Calm - N/A   Clear
4:53 PM 46.9 °F - 34.0 °F 61% 29.79 in 10.0 mi Calm Calm - N/A   Mostly Cloudy
5:53 PM 45.0 °F - 36.0 °F 71% 29.80 in 10.0 mi Calm Calm - N/A   Scattered Clouds
6:53 PM 39.9 °F - 35.1 °F 83% 29.80 in 10.0 mi Calm Calm - N/A   Mostly Cloudy
7:53 PM 41.0 °F - 36.0 °F 82% 29.80 in 10.0 mi Calm Calm - N/A   Scattered Clouds
8:53 PM 42.1 °F - 37.0 °F 82% 29.80 in 10.0 mi Calm Calm - N/A   Mostly Cloudy
9:53 PM 43.0 °F - 37.9 °F 82% 29.79 in 10.0 mi Calm Calm - N/A   Overcast
10:53 PM 43.0 °F - 37.9 °F 82% 29.81 in 10.0 mi Calm Calm - N/A   Overcast
11:53 PM 44.1 °F - 37.0 °F 76% 29.78 in 10.0 mi Calm Calm - N/A   Overcast